Terminal Aerodrome Forecast
Issued by NWS Jackson, MS

Home | Current Version | Previous Version | Text Only | Print | Product List | Glossary On
Versions: 1 2 3 4 5 6 7 8 9 10 11 12 13 14
000
FTUS44 KJAN 230520
TAFHBG
TAF
KHBG 230520Z 2306/2406 04003KT P6SM SCT060
     FM231000 00000KT 4SM BR FEW250
     FM231400 07004KT P6SM SKC
     FM232100 08005KT P6SM VCTS SCT050CB
     FM240100 08004KT P6SM SKC=

USA.gov is the U.S. government's official web portal to all federal, state and local government web resources and services.